Hourly Data Report for September 09, 2018

TORONTO CITY
ONTARIO
Current Station Operator: ECCC - MSC

43°40'00.000" N
79°24'00.000" W
112.50 m
6158355
71508
XTO

Download Data

Hourly Data (September 2018)
Hourly Data Report for September 9, 2018
TIME
LST
Temp Definition
°C
Dew Point Definition
°C
Rel Hum Definition
%
Precip. Amount Definition
mm

Wind Dir Definition
10's deg

Wind Spd Definition
km/h
Visibility Definition
km
Stn Press Definition
kPa
Hmdx Definition


Wind Chill Definition


Weather Definition


00:00 13.9 3.3 49 0.0 LegendMM LegendMM   101.11     LegendNANA
01:00 13.1 3.3 51 0.0 LegendMM LegendMM   101.13     LegendNANA
02:00 12.5 4.0 56 0.0 LegendMM LegendMM   101.12     LegendNANA
03:00 12.3 3.7 56 0.0 LegendMM LegendMM   101.05     LegendNANA
04:00 11.6 3.9 59 0.0 LegendMM LegendMM   101.03     LegendNANA
05:00 11.8 4.4 60 0.0 LegendMM LegendMM   101.02     LegendNANA
06:00 11.7 3.6 58 0.0 LegendMM LegendMM   101.01     LegendNANA
07:00 11.6 4.0 59 0.0 LegendMM LegendMM   101.03     LegendNANA
08:00 12.0 4.6 60 0.0 LegendMM LegendMM   101.04     LegendNANA
09:00 13.0 5.5 60 0.0 LegendMM LegendMM   101.05     LegendNANA
10:00 14.4 8.3 67 0.0 LegendMM LegendMM   101.04     LegendNANA
11:00 15.1 9.1 68 0.0 LegendMM LegendMM   101.03     LegendNANA
12:00 15.7 9.3 66 0.0 LegendMM LegendMM   101.01     LegendNANA
13:00 16.0 8.9 63 0.0 LegendMM LegendMM   100.99     LegendNANA
14:00 16.0 8.2 60 0.0 LegendMM LegendMM   100.97     LegendNANA
15:00 15.9 7.6 58 0.0 LegendMM LegendMM   100.96     LegendNANA
16:00 15.7 6.6 55 0.0 LegendMM LegendMM   100.93     LegendNANA
17:00 15.6 6.0 53 0.0 LegendMM LegendMM   100.91     LegendNANA
18:00 15.7 5.9 52 0.0 LegendMM LegendMM   100.92     LegendNANA
19:00 15.8 7.2 56 0.0 LegendMM LegendMM   100.87     LegendNANA
20:00 15.0 6.6 57 0.0 LegendMM LegendMM   100.89     LegendNANA
21:00 16.3 9.8 65 0.0 LegendMM LegendMM   100.86     LegendNANA
22:00 16.4 7.6 56 0.0 LegendMM LegendMM   100.84     LegendNANA
23:00 16.3 8.8 61 0.0 LegendMM LegendMM   100.85     LegendNANA

Notes on Data Quality.

Legend

  • E = Estimated
  • M = Missing
  • NA = Not Available*
  • [empty] = Indicates an unobserved value
Date modified: